Wind_Speed
56 58 60 62 62 61 60 58 50 40 37 37 37 39 42 44 46 49 51 52 53 52 52 50 49 47 44 42 39 35 33 29 22 22 27 30 30 31 31 29 27 26 25
59 61 62 63 61 60 56 48 39 36 36 37 38 41 44 47 49 50 51 52 52 50 49 47 45 44 42 41 38 34 31 27 21 17 21 24 27 28 27 25 24 24 24
62 62 62 61 60 56 48 40 36 36 37 38 41 44 47 49 49 50 50 50 49 48 45 43 41 39 37 36 36 33 29 24 19 16 19 21 22 22 21 21 22 22 22
62 61 59 59 56 47 40 37 36 37 39 41 45 48 49 49 49 48 48 48 47 45 42 40 38 35 32 31 31 29 26 22 19 16 17 19 19 18 16 17 18 19 18
59 57 57 54 45 38 36 36 37 39 42 45 48 50 51 49 48 47 45 44 42 40 39 37 34 31 27 26 26 24 22 20 18 15 16 18 18 17 15 14 14 15 14
56 55 52 44 38 36 37 38 40 42 46 49 51 52 50 48 47 47 44 41 39 36 35 33 31 27 24 23 22 21 19 18 16 14 14 15 16 16 14 11 11 11 10
53 50 43 38 37 37 39 41 43 46 48 50 52 51 50 49 46 44 42 39 37 35 32 30 27 24 21 20 19 17 16 15 14 12 10 10 11 12 10 7 7 6 4
49 43 38 36 37 39 41 44 47 49 51 52 51 50 50 48 45 42 40 38 35 32 28 25 23 21 19 17 16 14 12 11 10 9 8 8 8 8 5 3 4 3 1
41 36 35 37 39 41 43 46 48 50 51 51 50 50 48 44 42 39 37 34 30 25 23 22 21 19 16 14 13 12 10 10 10 8 8 8 8 7 5 6 6 4 2
34 33 35 37 40 42 45 47 49 50 51 51 51 48 44 41 39 35 29 26 22 20 20 19 18 16 12 11 11 12 11 10 9 9 9 9 9 10 10 9 7 5 4
31 33 35 38 41 43 45 47 48 50 52 51 48 44 42 40 36 30 24 21 19 18 16 16 15 11 8 9 12 12 11 10 9 9 10 11 12 13 14 12 10 7 6
30 33 36 39 41 43 44 46 48 50 50 47 44 42 40 36 30 26 23 20 18 16 15 14 12 6 5 10 12 11 10 8 9 13 15 15 15 17 17 15 12 9 8
31 34 37 39 41 43 43 45 47 47 46 43 42 39 34 29 26 25 23 20 18 16 14 11 6 4 8 12 12 11 10 13 16 19 19 17 17 19 18 15 12 10 11
31 35 37 39 41 42 42 43 44 43 42 41 38 32 26 24 23 23 21 19 17 12 6 3 3 7 10 14 15 15 16 19 21 20 18 16 16 16 16 14 12 12 15
32 34 37 39 41 41 40 42 42 41 40 37 32 26 22 21 20 20 18 14 8 4 4 3 5 9 13 18 20 19 19 19 20 19 16 15 15 17 16 14 13 15 19
32 34 37 39 41 40 40 41 41 39 37 33 29 24 21 20 20 20 15 9 7 9 9 8 8 10 14 20 22 22 21 20 20 19 17 17 17 18 17 15 15 19 23
32 35 37 39 40 39 39 40 39 36 35 32 28 22 19 18 18 17 13 10 9 10 11 12 12 11 14 21 24 24 24 22 20 18 16 17 17 16 16 16 18 23 25
33 35 37 38 38 38 38 38 37 35 34 31 27 21 17 15 14 14 12 10 9 10 11 13 15 14 15 21 24 24 24 23 20 16 15 15 15 15 15 16 20 24 24
32 34 35 36 36 37 37 36 35 34 32 30 26 21 18 15 12 13 13 9 8 8 9 12 16 17 17 20 23 23 22 20 18 16 16 16 15 15 16 17 21 24 25
32 34 34 34 35 35 34 35 34 32 30 28 23 20 19 17 13 13 15 13 9 8 8 11 15 18 19 20 21 21 20 20 19 18 17 17 16 16 17 19 21 23 24
31 32 33 32 33 33 33 34 33 31 29 27 24 20 19 18 14 11 12 14 12 9 9 11 14 16 18 20 20 21 21 21 20 18 16 16 16 17 18 19 20 20 20
30 31 31 31 32 33 33 33 32 30 28 27 26 24 21 19 16 13 11 11 11 11 9 11 13 15 16 17 18 20 20 20 19 17 16 16 17 18 18 18 17 16 16
29 30 31 32 33 33 33 32 30 29 27 26 26 25 22 20 17 16 14 12 11 10 10 10 11 13 14 15 16 17 18 19 18 17 16 16 17 18 17 16 14 12 11
30 31 32 33 34 33 31 29 28 27 27 26 26 25 23 21 19 18 18 17 14 11 10 10 10 12 13 13 13 14 16 16 16 16 15 15 16 17 17 16 14 11 10
31 33 34 36 35 33 30 27 25 25 26 27 27 26 25 22 18 16 17 19 18 15 11 10 10 11 12 13 13 13 13 13 14 13 13 14 16 17 18 17 16 15 13
33 35 37 37 35 32 29 26 24 23 24 25 27 28 27 24 19 15 13 14 16 16 14 11 11 11 12 13 14 14 14 14 13 13 12 13 15 17 17 17 16 16 15
Wind_Direction
310 310 310 309 310 310 309 309 308 304 301 302 304 306 309 311 310 310 310 311 312 311 307 300 292 285 280 279 283 291 298 296 285 260 254 256 260 265 268 269 267 267 268
310 309 310 310 311 310 309 308 304 302 303 305 307 309 312 312 311 310 311 312 313 311 308 303 296 287 280 276 277 283 291 293 286 265 252 253 258 265 268 268 266 266 265
309 309 310 310 310 309 306 302 302 303 305 307 310 312 313 312 311 310 310 312 312 311 309 306 300 291 282 275 274 277 283 286 281 265 254 256 261 266 268 267 265 263 262
309 310 311 311 310 307 303 302 304 305 307 309 311 312 313 312 311 310 309 310 311 310 310 308 305 297 285 277 273 273 275 278 275 264 252 255 260 264 268 266 262 260 264
311 312 312 312 310 306 305 305 306 307 309 311 312 313 313 312 311 311 308 307 307 309 309 308 305 298 289 279 272 267 267 270 269 263 252 253 257 260 262 266 265 262 268
313 313 312 310 309 308 308 308 308 310 312 314 314 314 313 312 311 310 307 304 304 306 309 308 305 298 289 282 272 263 260 263 262 260 252 252 254 253 256 263 264 262 273
313 312 310 308 309 310 310 311 312 314 315 315 315 315 314 313 311 309 306 302 301 302 307 308 305 298 287 281 271 260 256 256 253 248 243 249 249 245 246 257 259 258 279
312 310 308 308 311 313 314 314 316 317 317 317 317 317 315 313 311 309 307 303 300 300 304 307 305 298 286 276 264 253 245 239 232 223 232 247 242 236 238 223 197 200 321
310 308 308 311 314 315 316 318 319 320 320 320 320 318 317 315 313 312 311 307 301 298 302 305 303 297 283 268 249 229 219 214 209 215 233 238 226 208 174 159 162 153 45
307 308 311 313 315 317 320 322 323 324 323 323 323 322 321 320 320 320 318 310 300 297 301 303 301 294 274 250 222 203 198 202 213 225 228 216 195 174 158 155 157 139 71
306 309 313 315 319 322 324 326 326 326 327 327 327 326 326 325 325 326 324 315 305 301 304 304 301 289 252 214 193 188 193 206 218 211 195 181 172 165 160 158 151 130 97
309 313 316 320 324 327 328 329 330 330 331 331 330 328 327 327 328 329 327 319 310 304 304 304 301 273 200 177 176 180 190 200 183 167 158 153 155 159 160 156 144 126 120
314 317 321 326 329 332 332 332 332 333 333 332 330 329 329 330 331 332 330 323 313 304 298 293 281 199 163 162 163 164 162 155 150 148 145 143 146 152 156 152 142 133 134
319 322 327 331 334 335 334 334 334 335 335 335 335 335 337 339 338 337 333 327 320 313 294 260 202 160 155 155 150 142 139 140 140 142 145 146 147 151 154 150 145 141 142
324 328 332 336 337 336 335 336 337 337 339 341 342 342 345 348 347 344 341 341 353 45 91 104 138 152 156 155 147 138 135 135 135 137 141 145 151 156 155 150 148 147 147
330 334 337 339 339 338 338 339 341 342 344 346 346 345 349 355 356 356 1 17 62 89 85 83 103 135 154 157 150 143 138 135 133 132 131 135 143 151 150 144 146 150 150
337 338 341 342 342 342 342 344 346 347 349 351 350 348 351 360 6 12 27 52 81 90 84 83 93 117 147 157 155 151 146 143 141 139 135 135 139 144 144 141 145 151 152
341 342 344 345 346 346 347 349 352 354 355 356 358 2 6 11 17 28 40 59 77 87 90 88 92 107 134 155 160 160 157 153 150 147 146 147 145 143 141 140 146 152 153
345 347 349 350 351 351 353 355 358 360 1 3 7 17 23 25 34 41 42 52 73 91 104 103 97 103 121 147 161 166 167 167 165 160 153 152 151 147 141 139 146 152 153
351 352 354 354 355 356 359 1 3 5 8 11 16 24 29 34 42 50 48 52 69 94 115 122 111 105 114 134 153 164 168 168 166 162 155 150 150 148 142 140 145 152 156
356 355 356 357 359 2 4 5 7 9 13 18 23 27 31 35 41 49 48 48 57 86 119 131 126 114 115 126 142 155 162 166 167 166 162 157 153 150 145 142 141 148 155
359 357 358 1 3 6 7 9 10 13 17 21 26 29 31 34 39 44 45 47 55 70 104 131 140 127 118 124 139 152 161 167 171 173 171 167 163 158 154 150 146 145 153
3 1 1 3 4 5 8 11 13 17 21 25 29 32 33 36 40 44 46 48 60 73 89 116 141 145 132 125 132 146 159 166 172 175 175 174 172 170 168 166 165 161 162
7 6 5 4 4 4 6 12 16 21 26 30 32 34 37 42 47 51 52 54 62 76 90 102 121 141 148 143 140 145 152 159 170 179 182 182 183 184 186 188 189 190 188
9 9 7 5 5 6 9 14 20 25 31 34 36 36 38 42 49 54 55 54 56 64 82 100 112 128 140 145 144 144 148 150 154 165 178 187 191 192 193 195 199 202 202
12 11 9 8 9 11 14 19 25 30 34 38 40 39 39 40 43 46 48 47 47 51 66 87 100 115 126 131 136 136 137 141 145 152 162 173 183 187 189 192 195 198 198
Height
5748 5740 5732 5724 5715 5706 5697 5687 5678 5672 5667 5662 5657 5651 5645 5638 5631 5624 5616 5608 5600 5592 5584 5578 5573 5569 5567 5564 5562 5559 5555 5551 5550 5550 5548 5548 5549 5550 5550 5551 5552 5553 5553
5737 5729 5721 5712 5703 5694 5685 5676 5669 5664 5659 5653 5647 5641 5635 5627 5619 5611 5603 5595 5587 5579 5571 5564 5559 5555 5553 5552 5551 5550 5547 5544 5542 5542 5542 5542 5542 5543 5543 5544 5545 5545 5545
5726 5718 5710 5701 5693 5683 5674 5667 5661 5656 5650 5644 5638 5631 5624 5615 5607 5599 5590 5582 5574 5566 5559 5553 5547 5542 5541 5540 5540 5540 5539 5537 5536 5536 5536 5536 5537 5537 5538 5539 5539 5538 5538
5715 5707 5699 5691 5682 5673 5666 5660 5654 5648 5642 5635 5628 5621 5612 5603 5594 5586 5577 5569 5562 5555 5548 5542 5537 5532 5530 5529 5530 5531 5531 5531 5530 5530 5531 5531 5532 5533 5533 5533 5533 5532 5532
5705 5696 5688 5680 5672 5665 5658 5652 5647 5640 5633 5626 5618 5609 5600 5591 5581 5573 5565 5558 5551 5545 5539 5533 5527 5523 5520 5520 5521 5522 5524 5524 5525 5525 5526 5526 5527 5528 5529 5529 5528 5527 5527
5694 5686 5678 5670 5664 5657 5651 5645 5639 5631 5623 5615 5606 5596 5587 5578 5569 5560 5553 5547 5541 5535 5530 5523 5518 5515 5513 5512 5513 5515 5517 5518 5519 5520 5521 5521 5522 5524 5524 5524 5524 5523 5523
5683 5676 5669 5663 5657 5650 5644 5637 5629 5621 5613 5603 5594 5584 5575 5565 5557 5549 5542 5535 5530 5525 5520 5515 5511 5507 5506 5506 5506 5508 5511 5512 5514 5515 5516 5517 5519 5520 5521 5521 5520 5520 5520
5675 5668 5662 5656 5649 5642 5635 5628 5619 5610 5601 5591 5582 5572 5563 5553 5545 5538 5530 5524 5519 5515 5511 5507 5504 5501 5500 5500 5501 5503 5506 5507 5509 5511 5513 5515 5516 5517 5518 5519 5519 5520 5520
5667 5661 5656 5649 5642 5635 5627 5618 5609 5600 5590 5580 5570 5560 5551 5542 5534 5527 5520 5513 5509 5506 5503 5500 5498 5495 5494 5494 5496 5499 5502 5504 5506 5508 5510 5512 5514 5515 5517 5518 5519 5520 5521
5661 5656 5650 5643 5636 5627 5618 5609 5599 5589 5579 5569 5558 5548 5539 5532 5524 5517 5511 5505 5501 5498 5497 5494 5492 5490 5489 5490 5493 5495 5498 5501 5503 5505 5508 5509 5512 5514 5516 5518 5520 5522 5522
5656 5650 5644 5637 5629 5620 5610 5600 5590 5580 5569 5558 5548 5538 5530 5523 5515 5510 5504 5499 5495 5493 5491 5489 5487 5486 5485 5487 5490 5493 5496 5498 5500 5502 5505 5508 5511 5514 5517 5519 5522 5524 5524
5651 5645 5638 5630 5621 5612 5602 5592 5582 5571 5560 5550 5540 5531 5523 5516 5509 5504 5499 5495 5491 5489 5487 5485 5484 5483 5483 5485 5489 5492 5494 5496 5498 5501 5504 5508 5510 5514 5517 5521 5523 5525 5526
5646 5639 5632 5624 5614 5605 5596 5586 5575 5565 5554 5544 5535 5526 5518 5511 5505 5500 5495 5491 5487 5484 5482 5481 5481 5481 5482 5485 5488 5491 5493 5495 5498 5502 5506 5509 5512 5515 5519 5522 5525 5527 5528
5641 5634 5626 5617 5609 5600 5590 5580 5571 5560 5550 5539 5529 5521 5514 5508 5502 5497 5492 5487 5483 5480 5479 5479 5480 5481 5483 5486 5489 5492 5495 5497 5501 5505 5508 5512 5515 5519 5522 5525 5527 5529 5531
5637 5629 5620 5612 5604 5595 5585 5576 5566 5556 5545 5535 5526 5518 5512 5507 5501 5495 5490 5485 5482 5480 5480 5481 5481 5482 5484 5487 5491 5495 5499 5502 5505 5508 5511 5514 5518 5521 5525 5527 5528 5531 5534
5632 5624 5616 5608 5599 5590 5581 5571 5561 5551 5541 5531 5523 5516 5510 5505 5499 5494 5489 5486 5484 5484 5484 5484 5484 5484 5486 5489 5494 5498 5502 5506 5509 5512 5515 5518 5521 5524 5527 5529 5531 5534 5538
5628 5620 5612 5604 5594 5586 5577 5567 5557 5547 5537 5528 5520 5514 5509 5504 5500 5495 5491 5489 5489 5489 5488 5488 5487 5487 5488 5492 5497 5501 5505 5509 5513 5516 5519 5521 5524 5527 5530 5532 5534 5537 5541
5625 5617 5609 5600 5591 5583 5574 5564 5555 5545 5535 5527 5519 5513 5509 5505 5501 5498 5495 5494 5493 5493 5492 5491 5490 5490 5491 5495 5499 5504 5508 5512 5516 5519 5522 5525 5527 5530 5533 5535 5538 5541 5545
5622 5614 5607 5598 5590 5581 5572 5563 5553 5544 5535 5527 5520 5515 5510 5507 5504 5501 5499 5497 5496 5495 5495 5495 5495 5494 5495 5498 5502 5506 5510 5514 5518 5522 5525 5528 5531 5533 5536 5539 5542 5545 5550
5620 5613 5605 5597 5589 5580 5571 5562 5554 5545 5537 5529 5523 5518 5514 5510 5507 5505 5502 5500 5498 5498 5497 5498 5498 5499 5499 5501 5505 5509 5513 5516 5520 5524 5528 5531 5534 5536 5539 5543 5546 5549 5553
5620 5612 5605 5598 5589 5581 5572 5564 5555 5547 5539 5532 5526 5521 5517 5513 5510 5508 5506 5503 5501 5500 5500 5500 5501 5502 5504 5505 5508 5511 5515 5519 5523 5527 5530 5533 5537 5540 5543 5546 5550 5553 5556
5620 5613 5606 5598 5590 5582 5573 5565 5557 5549 5542 5536 5530 5524 5520 5516 5513 5511 5508 5507 5505 5503 5503 5503 5504 5506 5507 5509 5512 5514 5517 5521 5525 5529 5532 5536 5539 5543 5546 5549 5552 5555 5558
5621 5613 5605 5598 5590 5582 5574 5567 5559 5552 5546 5540 5534 5529 5524 5520 5517 5514 5511 5509 5508 5507 5506 5506 5507 5509 5511 5513 5515 5518 5521 5524 5527 5531 5534 5537 5541 5545 5548 5552 5554 5557 5560
5622 5614 5606 5598 5590 5582 5575 5568 5562 5556 5550 5544 5538 5533 5529 5524 5521 5518 5515 5513 5511 5510 5510 5510 5511 5512 5514 5516 5518 5521 5523 5526 5529 5532 5536 5539 5542 5546 5549 5553 5555 5558 5561
5623 5615 5607 5598 5589 5582 5575 5569 5564 5559 5554 5548 5543 5538 5533 5529 5525 5523 5521 5518 5516 5515 5514 5514 5514 5515 5517 5519 5521 5523 5526 5529 5531 5534 5537 5540 5543 5546 5549 5553 5556 5558 5561
5624 5616 5607 5598 5590 5582 5576 5571 5566 5562 5558 5553 5548 5543 5538 5534 5530 5527 5525 5523 5521 5519 5518 5518 5518 5519 5521 5522 5524 5526 5528 5531 5533 5535 5538 5540 5543 5546 5549 5552 5555 5558 5560